This is the latest recevied weather packets stored in our database for station/object AG1T-20. If no packets are shown the sender has not sent any weather packets the latest 10 day(s).
| Time | Temp. | Humidity | Pressure | Rain* | Wind** | Luminosity | Snow |
|---|---|---|---|---|---|---|---|
| 1788527404 | 18.33° C | 25% | 1023.1 hPa | 0 mm | - | 10 W/m² | - |
| 1788526805 | 18.89° C | 23% | 1022.8 hPa | 0 mm | - | 6 W/m² | - |
| 1788526204 | 18.89° C | 24% | 1022.5 hPa | 0 mm | - | 2 W/m² | - |
| 1788525605 | 18.89° C | 23% | 1022.3 hPa | 0 mm | - | 0 W/m² | - |
| 1788525004 | 20° C | 22% | 1021.2 hPa | 0 mm | - | 0 W/m² | - |
| 1788524405 | 20° C | 22% | 1021.4 hPa | 0 mm | - | 0 W/m² | - |
| 1788523804 | 21.11° C | 20% | 1020.4 hPa | 0 mm | - | 0 W/m² | - |
| 1788523204 | 20.56° C | 21% | 1020.8 hPa | 0 mm | - | 0 W/m² | - |
| 1788522604 | 20° C | 21% | 1021 hPa | 0 mm | - | 0 W/m² | - |
| 1788522004 | 20° C | 22% | 1021 hPa | 0 mm | - | 0 W/m² | - |
| 1788521404 | 20.56° C | 21% | 1020.6 hPa | 0 mm | - | 0 W/m² | - |
| 1788520804 | 20.56° C | 20% | 1020.4 hPa | 0 mm | - | 0 W/m² | - |
| 1788520204 | 20.56° C | 19% | 1020.2 hPa | 0 mm | - | 0 W/m² | - |
| 1788519605 | 21.67° C | 19% | 1019.7 hPa | 0 mm | - | 0 W/m² | - |
| 1788519004 | 21.67° C | 19% | 1019.5 hPa | 0 mm | - | 0 W/m² | - |
| 1788518404 | 21.67° C | 18% | 1019.2 hPa | 0 mm | - | 0 W/m² | - |
| 1788517804 | 22.22° C | 18% | 1019.1 hPa | 0 mm | - | 0 W/m² | - |
| 1788517204 | 21.67° C | 18% | 1019 hPa | 0 mm | - | 0 W/m² | - |
| 1788516604 | 21.67° C | 18% | 1019.1 hPa | 0 mm | - | 0 W/m² | - |
| 1788516004 | 20° C | 22% | 1020 hPa | 0 mm | - | 0 W/m² | - |
| 1788515404 | 21.11° C | 21% | 1019.4 hPa | 0 mm | - | 0 W/m² | - |
| 1788514804 | 21.11° C | 20% | 1019.1 hPa | 0 mm | - | 0 W/m² | - |
| 1788514204 | 20.56° C | 21% | 1019.3 hPa | 0 mm | - | 0 W/m² | - |
| 1788513605 | 20.56° C | 21% | 1019.1 hPa | 0 mm | - | 0 W/m² | - |
| 1788513004 | 21.11° C | 21% | 1018.9 hPa | 0 mm | - | 0 W/m² | - |
* Rain latest hour (hover to see other rain measurements)
** Current wind speed in m/s (hover to see current wind gust speed)